Location: Hepcat Sky Observatory
(29.9800°N, 95.6500°W)
Time: 23:16:46
(UTC-05:00)

Cosmos 2366 rocket - Visible Passes

Search period start: 22 May 2015 00:00
Search period end: 01 June 2015 00:00
Orbit: 954 x 998 km, 82.9° (Epoch: 22 May)

Date Brightness Start Highest point End Pass type
(mag) Time Alt. Az. Time Alt. Az. Time Alt. Az.
22 May 5.7 00:12:53 23° NE 00:12:53 23° NE 00:15:21 10° NNE visible
22 May 5.9 01:57:33 19° NW 01:57:33 19° NW 02:00:04 10° NNW visible
23 May 5.3 00:38:15 33° NNE 00:38:15 33° NNE 00:41:28 10° N visible
23 May 6.4 02:22:55 10° NW 02:22:55 10° NW 02:23:07 10° NW visible
23 May 6.2 23:18:55 11° ENE 23:18:55 11° ENE 23:19:30 10° NE visible
24 May 5.4 01:03:35 33° NNW 01:03:35 33° NNW 01:07:01 10° N visible
24 May 5.7 23:44:15 22° NE 23:44:15 22° NE 23:46:49 10° NNE visible
25 May 5.8 01:28:55 23° NW 01:28:55 23° NW 01:32:01 10° NNW visible
26 May 5.1 00:09:34 35° NNE 00:09:34 35° NNE 00:13:04 10° NNE visible
26 May 6.3 01:54:14 13° WNW 01:54:14 13° WNW 01:55:49 10° NW visible
26 May 6.2 22:50:12 10° ENE 22:50:12 10° ENE 22:50:20 10° ENE visible
27 May 5.1 00:34:52 40° NNW 00:34:52 40° NNW 00:38:45 10° N visible
27 May 5.6 23:15:29 21° NE 23:15:29 21° NE 23:18:14 10° NNE visible
28 May 5.5 01:00:09 28° NW 01:00:09 28° NW 01:03:54 10° NNW visible
28 May 4.9 23:40:45 37° NE 23:40:45 37° NE 23:44:39 10° NNE visible
29 May 6.1 01:25:25 16° WNW 01:25:25 16° WNW 01:28:08 10° NW visible
30 May 4.6 00:06:00 50° N 00:06:00 50° N 00:10:28 10° N visible
30 May 5.5 22:46:34 20° ENE 22:46:34 20° ENE 22:49:35 10° NE visible
31 May 5.2 00:31:14 36° NW 00:31:14 36° NW 00:35:45 10° NNW visible
31 May 4.7 23:11:47 39° ENE 23:11:47 39° ENE 23:16:13 10° NNE visible
